| time (UTC) | temp F | wind direction | speed MPH | gust MPH | rain 1hr in | rain 24hr in | rain mn in | humidity % | barometer mb |
| 20260508014515 | 50 | 333 | 8.0 | 13.0 | 0.00 | 0.08 | 0.05 | 47 | 1006.8 |
| 20260508013047 | 51 | 321 | 7.0 | 12.0 | 0.00 | 0.08 | 0.05 | 47 | 1006.5 |
| 20260508011514 | 52 | 317 | 9.0 | 12.0 | 0.00 | 0.08 | 0.05 | 45 | 1006.4 |
| 20260508010043 | 52 | 329 | 4.0 | 11.0 | 0.00 | 0.08 | 0.05 | 45 | 1006.2 |
| 20260508004511 | 52 | 348 | 5.0 | 13.0 | 0.00 | 0.08 | 0.05 | 46 | 1005.9 |
| 20260508003044 | 53 | 337 | 4.0 | 10.0 | 0.00 | 0.08 | 0.05 | 47 | 1005.7 |
| 20260508001502 | 53 | 321 | 6.0 | 13.0 | 0.00 | 0.08 | 0.05 | 44 | 1005.5 |
| 20260508000031 | 54 | 316 | 4.0 | 9.0 | 0.00 | 0.08 | 0.05 | 42 | 1005.2 |
| 20260507234600 | 54 | 327 | 5.0 | 10.0 | 0.00 | 0.08 | 0.05 | 41 | 1005.1 |
| 20260507233039 | 55 | 310 | 6.0 | 15.0 | 0.00 | 0.08 | 0.05 | 42 | 1004.9 |
| 20260507231601 | 56 | 347 | 4.0 | 12.0 | 0.00 | 0.08 | 0.05 | 41 | 1004.8 |
| 20260507230029 | 57 | 296 | 3.0 | 9.0 | 0.00 | 0.08 | 0.05 | 41 | 1004.6 |
| 20260507224603 | 57 | 292 | 3.0 | 6.0 | 0.00 | 0.08 | 0.05 | 41 | 1004.4 |
| 20260507223024 | 56 | 324 | 3.0 | 9.0 | 0.00 | 0.08 | 0.05 | 42 | 1004.3 |
| 20260507221554 | 56 | 319 | 2.0 | 12.0 | 0.00 | 0.08 | 0.05 | 43 | 1004.1 |
| 20260507220021 | 57 | 302 | 2.0 | 11.0 | 0.00 | 0.10 | 0.05 | 44 | 1004.1 |
| 20260507214603 | 59 | 289 | 4.0 | 12.0 | 0.00 | 0.10 | 0.05 | 41 | 1004.1 |
| 20260507213013 | 60 | 318 | 8.0 | 14.0 | 0.00 | 0.10 | 0.05 | 38 | 1004.0 |
| 20260507211545 | 60 | 317 | 7.0 | 11.0 | 0.00 | 0.10 | 0.05 | 38 | 1004.1 |
| 20260507210012 | 61 | 319 | 9.0 | 16.0 | 0.00 | 0.22 | 0.05 | 36 | 1003.9 |
| 20260507204541 | 60 | 272 | 3.0 | 6.0 | 0.00 | 0.22 | 0.05 | 38 | 1003.8 |
| 20260507203011 | 61 | 302 | 5.0 | 15.0 | 0.00 | 0.22 | 0.05 | 38 | 1003.8 |
| 20260507201530 | 61 | 320 | 6.0 | 21.0 | 0.00 | 0.22 | 0.05 | 37 | 1003.7 |
| 20260507200110 | 61 | 265 | 3.0 | 13.0 | 0.00 | 0.22 | 0.05 | 37 | 1003.8 |
| 20260507194529 | 61 | 342 | 8.0 | 18.0 | 0.00 | 0.36 | 0.05 | 41 | 1003.9 |
| 20260507193100 | 61 | 311 | 8.0 | 20.0 | 0.00 | 0.36 | 0.05 | 40 | 1003.9 |
| 20260507191527 | 60 | 304 | 8.0 | 21.0 | 0.00 | 0.36 | 0.05 | 41 | 1004.1 |
| 20260507190103 | 59 | 333 | 8.0 | 15.0 | 0.00 | 0.48 | 0.05 | 42 | 1004.1 |
| 20260507184522 | 60 | 285 | 6.0 | 18.0 | 0.00 | 0.48 | 0.05 | 44 | 1004.2 |
| 20260507183051 | 60 | 317 | 5.0 | 18.0 | 0.00 | 0.48 | 0.05 | 50 | 1004.3 |
| 20260507181524 | 59 | 279 | 9.0 | 20.0 | 0.00 | 0.48 | 0.05 | 46 | 1004.3 |
| 20260507180050 | 59 | 280 | 2.0 | 9.0 | 0.00 | 0.48 | 0.05 | 53 | 1004.2 |
| 20260507174515 | 61 | 316 | 7.0 | 21.0 | 0.00 | 0.48 | 0.05 | 50 | 1004.3 |
| 20260507173041 | 60 | 281 | 4.0 | 12.0 | 0.00 | 0.48 | 0.05 | 50 | 1004.3 |
| 20260507171510 | 58 | 323 | 6.0 | 12.0 | 0.00 | 0.48 | 0.05 | 56 | 1004.4 |
| 20260507170038 | 59 | 292 | 7.0 | 15.0 | 0.00 | 0.48 | 0.05 | 57 | 1004.6 |
| 20260507164508 | 59 | 300 | 5.0 | 12.0 | 0.00 | 0.48 | 0.05 | 55 | 1004.8 |
| 20260507163038 | 59 | 246 | 3.0 | 8.0 | 0.00 | 0.48 | 0.05 | 56 | 1004.7 |
| 20260507161555 | 59 | 191 | 2.0 | 6.0 | 0.00 | 0.48 | 0.05 | 59 | 1004.8 |
| 20260507160024 | 58 | 270 | 2.0 | 6.0 | 0.00 | 0.48 | 0.05 | 55 | 1005.2 |
| 20260507154553 | 58 | 285 | 4.0 | 9.0 | 0.00 | 0.48 | 0.05 | 56 | 1005.3 |
| 20260507153017 | 58 | 329 | 4.0 | 6.0 | 0.00 | 0.48 | 0.05 | 58 | 1005.5 |
| 20260507151547 | 58 | 293 | 2.0 | 8.0 | 0.00 | 0.48 | 0.05 | 60 | 1005.6 |
| 20260507150023 | 57 | 342 | 2.0 | 10.0 | 0.00 | 0.48 | 0.05 | 58 | 1005.5 |
| 20260507144543 | 58 | 314 | 2.0 | 8.0 | 0.00 | 0.48 | 0.05 | 62 | 1005.6 |
| 20260507143000 | 57 | 249 | 2.0 | 6.0 | 0.00 | 0.48 | 0.05 | 65 | 1005.7 |
| 20260507141521 | 56 | 302 | 2.0 | 5.0 | 0.00 | 0.48 | 0.05 | 71 | 1005.8 |
| 20260507140052 | 54 | 317 | 3.0 | 10.0 | 0.00 | 0.48 | 0.05 | 72 | 1006.0 |
| 20260507134514 | 54 | 306 | 2.0 | 8.0 | 0.00 | 0.48 | 0.05 | 76 | 1006.0 |
| 20260507133100 | 54 | 313 | 2.0 | 8.0 | 0.00 | 0.48 | 0.05 | 77 | 1006.2 |
| 20260507131508 | 53 | 270 | 1.0 | 6.0 | 0.00 | 0.48 | 0.05 | 78 | 1006.4 |
| 20260507130047 | 51 | 314 | 4.0 | 9.0 | 0.00 | 0.48 | 0.05 | 76 | 1006.4 |
| 20260507124506 | 51 | 315 | 6.0 | 11.0 | 0.00 | 0.48 | 0.05 | 76 | 1006.4 |
| 20260507123035 | 50 | 283 | 5.0 | 10.0 | 0.00 | 0.48 | 0.05 | 78 | 1006.4 |
| 20260507121606 | 50 | 296 | 2.0 | 9.0 | 0.00 | 0.48 | 0.05 | 82 | 1006.4 |
| 20260507120024 | 49 | 293 | 2.0 | 8.0 | 0.00 | 0.48 | 0.05 | 84 | 1006.4 |
| 20260507114627 | 47 | 292 | 1.0 | 7.0 | 0.00 | 0.48 | 0.05 | 89 | 1006.5 |
| 20260507113016 | 46 | 290 | 2.0 | 4.0 | 0.00 | 0.48 | 0.05 | 92 | 1006.1 |
| 20260507111547 | 45 | 310 | 1.0 | 4.0 | 0.00 | 0.48 | 0.05 | 93 | 1006.5 |
| 20260507110016 | 45 | 294 | 2.0 | 7.0 | 0.00 | 0.48 | 0.05 | 93 | 1006.9 |
| 20260507104546 | 45 | 315 | 2.0 | 4.0 | 0.00 | 0.48 | 0.05 | 93 | 1006.7 |
| 20260507103017 | 45 | 303 | 1.0 | 3.0 | 0.00 | 0.48 | 0.05 | 93 | 1006.3 |
| 20260507101548 | 45 | 297 | 1.0 | 5.0 | 0.00 | 0.48 | 0.05 | 93 | 1006.7 |
| 20260507100014 | 45 | 304 | 1.0 | 3.0 | 0.00 | 0.48 | 0.05 | 93 | 1006.4 |
| 20260507094542 | 46 | 314 | 1.0 | 4.0 | 0.00 | 0.48 | 0.05 | 92 | 1006.2 |
| 20260507093012 | 46 | 314 | 2.0 | 6.0 | 0.00 | 0.48 | 0.05 | 91 | 1006.1 |
| 20260507091544 | 46 | 306 | 2.0 | 6.0 | 0.00 | 0.48 | 0.05 | 92 | 1005.9 |
| 20260507090010 | 46 | 331 | 2.0 | 6.0 | 0.00 | 0.48 | 0.05 | 91 | 1006.1 |
| 20260507084531 | 47 | 282 | 1.0 | 6.0 | 0.00 | 0.48 | 0.05 | 91 | 1006.0 |
| 20260507083057 | 47 | 340 | 4.0 | 13.0 | 0.00 | 0.48 | 0.05 | 92 | 1006.2 |
| 20260507081522 | 47 | 320 | 4.0 | 8.0 | 0.00 | 0.48 | 0.05 | 94 | 1005.7 |
| 20260507080104 | 47 | 311 | 3.0 | 6.0 | 0.00 | 0.48 | 0.05 | 95 | 1006.0 |
| 20260507074514 | 47 | 331 | 6.0 | 9.0 | 0.00 | 0.48 | 0.05 | 94 | 1005.5 |
| 20260507073046 | 48 | 323 | 4.0 | 9.0 | 0.00 | 0.48 | 0.05 | 94 | 1005.7 |
| 20260507071511 | 48 | 339 | 5.0 | 10.0 | 0.00 | 0.48 | 0.05 | 94 | 1005.6 |
| 20260507070041 | 48 | 315 | 2.0 | 8.0 | 0.00 | 0.48 | 0.05 | 95 | 1005.6 |
| 20260507064503 | 48 | 309 | 2.0 | 8.0 | 0.00 | 0.48 | 0.05 | 95 | 1005.2 |
| 20260507063029 | 48 | 296 | 2.0 | 5.0 | 0.00 | 0.48 | 0.05 | 95 | 1005.0 |
| 20260507061600 | 48 | 298 | 2.0 | 6.0 | 0.00 | 0.48 | 0.05 | 95 | 1005.0 |
| 20260507060021 | 48 | 319 | 3.0 | 6.0 | 0.00 | 0.48 | 0.05 | 94 | 1004.7 |
| 20260507054551 | 49 | 335 | 2.0 | 11.0 | 0.00 | 0.48 | 0.05 | 94 | 1004.9 |
| 20260507053017 | 49 | 328 | 8.0 | 14.0 | 0.01 | 0.48 | 0.05 | 94 | 1004.4 |
| 20260507051540 | 50 | 315 | 9.0 | 19.0 | 0.01 | 0.48 | 0.05 | 95 | 1004.7 |
| 20260507050002 | 50 | 355 | 3.0 | 11.0 | 0.05 | 0.48 | 0.05 | 96 | 1004.5 |
| 20260507044524 | 51 | 337 | 5.0 | 17.0 | 0.07 | 0.48 | 0.05 | 96 | 1004.5 |
| 20260507043049 | 54 | 317 | 11.0 | 21.0 | 0.06 | 0.47 | 0.04 | 97 | 1004.3 |
| 20260507041601 | 55 | 292 | 5.0 | 13.0 | 0.06 | 0.47 | 0.04 | 97 | 1003.9 |
| 20260507040024 | 55 | 239 | 1.0 | 2.0 | 0.01 | 0.42 | 0.42 | 97 | 1003.9 |
| 20260507034558 | 55 | 248 | 1.0 | 2.0 | 0.01 | 0.41 | 0.41 | 97 | 1003.8 |
| 20260507033026 | 55 | 311 | 0.0 | 2.0 | 0.01 | 0.41 | 0.41 | 97 | 1003.5 |
| 20260507031555 | 55 | 201 | 0.0 | 4.0 | 0.01 | 0.41 | 0.41 | 97 | 1003.3 |
| 20260507030020 | 55 | 182 | 1.0 | 2.0 | 0.01 | 0.41 | 0.41 | 97 | 1003.4 |
| 20260507024603 | 55 | 201 | 0.0 | 6.0 | 0.00 | 0.40 | 0.40 | 97 | 1003.5 |
| 20260507023020 | 55 | 186 | 1.0 | 7.0 | 0.00 | 0.40 | 0.40 | 97 | 1003.6 |
| 20260507021552 | 55 | 172 | 0.0 | 6.0 | 0.00 | 0.40 | 0.40 | 97 | 1003.6 |